Flag for Canada Weather past 2 weeks in Burnaby, British Columbia, Canada

Now
46 °F

Mostly cloudy.


Feels Like: 46 °F
Forecast: 47 / 56 °F
Wind: 2 mph from South

Location: Vancouver International Air-Port


UV Index: 0 (Low)

Visibility: 15 mi


Pressure: 30.08 "Hg

Humidity: 87%

Dew point: 43 °F

Location of BurnabyLocation

Historic Weather in Burnaby

°F

Burnaby temperature yesterday

Maximum temperature yesterday: 55 °F (at 3:00 PM)
Minimum temperature yesterday: 45 °F (at 5:00 AM)
Average temperature yesterday: 50 °F

Past Weeks' High & Low Weather Summary

 TemperatureHumidityPressure
High61 °F (Apr 14, 3:00 PM)100% (Apr 17, 4:00 AM)30.35 "Hg (Apr 17, 4:00 AM)
Low37 °F (Apr 14, 5:00 AM)41% (Apr 13, 10:00 PM)29.67 "Hg (Apr 17, 7:00 PM)
Average50 °F77%30.10 "Hg
* Reported Apr 6 5:00 AM — Apr 21 5:00 AM, Burnaby, Weather by CustomWeather, © 2014

Note: Actual official high and low records may vary slightly from our data, if they occured in-between our weather recording intervals... More about our weather records

Advertising

Historic Weather Conditions — Data for Previous 24 hours

 ConditionsComfort  
Time TempWeatherWind HumidityBarometerVisibility
5:00 AM
Apr 21
46 °FMostly cloudy.2 mph87%30.08 "Hg15 mi
4:00 AM48 °FOvercast.2 mph76%30.09 "Hg15 mi
3:00 AM48 °FOvercast.2 mph76%30.10 "Hg15 mi
2:00 AM48 °FMostly cloudy.3 mph76%30.12 "Hg15 mi
1:00 AM48 °FMostly cloudy.7 mph76%30.12 "Hg15 mi
12:00 AM50 °FMostly cloudy.9 mph71%30.13 "Hg15 mi
11:00 PM
Apr 20
50 °FMostly cloudy.9 mph71%30.14 "Hg15 mi
10:00 PM50 °FOvercast.8 mph71%30.16 "Hg15 mi
9:00 PM50 °FMore clouds than sun.6 mph71%30.17 "Hg15 mi
8:00 PM52 °FOvercast.7 mph67%30.18 "Hg15 mi
7:00 PM52 °FMore clouds than sun.9 mph67%30.19 "Hg15 mi
6:00 PM54 °FPartly sunny.7 mph58%30.20 "Hg15 mi
5:00 PM54 °FCloudy.10 mph54%30.23 "Hg15 mi
4:00 PM55 °FMostly cloudy.10 mph55%30.23 "Hg15 mi
3:00 PM55 °FMore clouds than sun.10 mph59%30.23 "Hg15 mi
2:00 PM54 °FMostly cloudy.12 mph63%30.26 "Hg12 mi
1:00 PM54 °FCloudy.16 mph67%30.27 "Hg12 mi
12:00 PM54 °FCloudy.14 mph72%30.28 "Hg12 mi
11:00 AM52 °FCloudy.20 mph72%30.29 "Hg12 mi
10:00 AM50 °FCloudy.9 mph82%30.29 "Hg10 mi
9:00 AM48 °FPartly sunny.10 mph87%30.28 "Hg12 mi
8:00 AM46 °FScattered showers. Broken clouds.7 mph87%30.27 "Hg15 mi
7:00 AM45 °FPartly cloudy.5 mph81%30.26 "Hg15 mi
6:00 AM45 °FPartly cloudy.3 mph81%30.25 "Hg15 mi
Weather by CustomWeather, © 2014

See weather overview